Regional Weather Roundup
Issued by NWS

Home | Current Version | Previous Version | Graphics & Text | Print | Product List | Glossary On
Versions: 1 2 3 4 5 6 7 8 9 10 11 12 13 14 15 16 17 18 19 20 21 22 23 24 25 26 27 28 29 30 31 32 33 34 35 36 37 38 39 40 41 42 43 44 45 46 47 48 49 50
000
ASUS43 KMKX 211121
RWRWI

WISCONSIN REGIONAL WEATHER ROUNDUP
NATIONAL WEATHER SERVICE MILWAUKEE/SULLIVAN WI
600 AM CDT TUE APR 21 2015

NOTE: "FAIR" INDICATES FEW OR NO CLOUDS BELOW 12,000 FEET WITH NO
SIGNIFICANT WEATHER AND/OR OBSTRUCTIONS TO VISIBILITY.

WIZ001-002-006>008-014>016-023>028-211200-
NORTHWEST WISCONSIN

CITY           SKY/WX    TMP DP  RH WIND       PRES   REMARKS
SUPERIOR ARPT  CLOUDY    33  28  81 W13G20    29.41R WCI  24
ASHLAND        CLOUDY    31  29  92 W13       29.36S WCI  21
HAYWARD        LGT SNOW  31  27  85 W8        29.40R FOG     WCI  23
SIREN          LGT SNOW  32  30  92 W10       29.46S WCI  23
CUMBERLAND     FLURRIES  32  28  86 W12       29.44S WCI  23
RICE LAKE      LGT SNOW  32  29  88 W14G21    29.46S WCI  22
CHETEK         LGT SNOW  32  30  93 W9        29.45S WCI  24
LADYSMITH      LGT SNOW  33  31  94 W13G18    29.42S WCI  24
EAU CLAIRE     CLOUDY    34  27  75 W17G24    29.47S WCI  23
MENOMONIE      CLOUDY    35  28  75 W12G22    29.48S WCI  27
NEW RICHMOND   FLURRIES  32  28  85 NW16G23   29.50R WCI  22
OSCEOLA        FLURRIES  34  26  71 W20G26    29.53R WCI  23
$$

WIZ003>005-009-010-017-018-211200-
NORTH CENTRAL WISCONSIN

CITY           SKY/WX    TMP DP  RH WIND       PRES   REMARKS
MANITOWISH WTR LGT SNOW  30  30  99 W8G18     29.31R WCI  23
ARBOR VITAE    LGT SNOW  32  29  90 W12G17    29.31S WCI  23
WOODRUFF       LGT SNOW  32  29  90 W12G17    29.31S WCI  23
RHINELANDER    LGT SNOW  31  28  89 W12       29.33S FOG     WCI  22
EAGLE RIVER    LGT SNOW  32  30  94 W12       29.30R WCI  23
LAND O LAKES   LGT SNOW  32  30  93 W6        29.29S WCI  26
PHILLIPS       FLURRIES  31  28  90 W3        29.35S
TOMAHAWK       LGT SNOW  31  28  88 W6        29.36S WCI  26
MEDFORD        LGT SNOW  31  30  95 W10       29.39R WCI  22
MERRILL        CLOUDY    33  30  89 W12       29.37R WCI  24
$$

WIZ029-030-035-036-043>047-211200-
CENTRAL WISCONSIN

CITY           SKY/WX    TMP DP  RH WIND       PRES   REMARKS
WAUSAU         CLOUDY    33  29  85 W17       29.38S WCI  22
MOSINEE        CLOUDY    32  32 100 W16G22    29.41S WCI  21
MARSHFIELD     LGT SNOW  33  30  88 W15       29.42S FOG     WCI  23
STEVENS POINT  MIX PCPN  32  29  91 W10G17    29.43R WCI  23
WAUPACA        CLOUDY    36  31  81 W17       29.43S WCI  26
WAUTOMA        CLOUDY    35  33  92 W12       29.46R WCI  27
WISC RAPIDS    LGT SNOW  34  29  82 W12       29.46R WCI  25
CAMP DOUGLAS   LGT RAIN  34  34 100 SW17G24   29.48R WCI  23
$$

WIZ011>013-019>022-031-037>040-048>050-211200-
NORTHEAST WISCONSIN

CITY           SKY/WX    TMP DP  RH WIND       PRES   REMARKS
ANTIGO         LGT SNOW  32  30  93 W13       29.35S WCI  22
SHAWANO        MOCLDY    37  32  83 W8        29.40R WCI  30
OCONTO         CLOUDY    36  32  85 W10       29.39R WCI  28
STURGEON BAY   CLOUDY    36  28  75 W16G23    29.40S WCI  26
GREEN BAY      CLOUDY    38  31  76 W14G22    29.41S WCI  30
MANITOWOC      LGT RAIN  38  33  82 W10       29.43S WCI  31
APPLETON       CLOUDY    36  28  75 W16       29.43R WCI  26
CLINTONVILLE   CLOUDY    36  30  80 W12       29.40S WCI  27
OSHKOSH        CLOUDY    35  31  85 SW7G17    29.44S WCI  29
$$

WIZ032>034-041-042-053>061-211200-
SOUTHWEST WISCONSIN

CITY           SKY/WX    TMP DP  RH WIND       PRES   REMARKS
LA CROSSE      CLOUDY    39  27  62 W14G28    29.52S WCI  31
SPARTA         CLOUDY    36  29  76 W12G18    29.50S WCI  28
VIROQUA        CLOUDY    33  32  94 W9        29.51S WCI  26
BOSCOBEL       CLOUDY    41  25  53 W13G28    29.56R
PRAIRIE DU CHI CLOUDY    40  26  58 W21G30    29.58S WCI  30
PLATTEVILLE    CLOUDY    39  30  70 W28G38    29.57R WCI  27
$$

WIZ056-057-062-063-064-067-068-211200-
SOUTH CENTRAL WISCONSIN

CITY           SKY/WX    TMP DP  RH WIND       PRES   REMARKS
REEDSBURG      CLOUDY    34  31  88 W10G20    29.50S WCI  26
BARABOO/DELLS  CLOUDY    34  30  86 W13       29.49S WCI  25
LONE ROCK      CLOUDY    39  29  67 W10       29.53S WCI  32
MINERAL POINT  CLOUDY    39  30  70 W26G35    29.53S WCI  28
MADISON        CLOUDY    39  28  64 W10G21    29.51S WCI  32
MIDDLETON      CLOUDY    39  28  64 W17G26    29.51S WCI  30
WATERTOWN      CLOUDY    38  30  72 W16G22    29.49S WCI  29
MONROE         CLOUDY    37  32  81 SW22G28   29.54S WCI  27
JANESVILLE     MOCLDY    39  30  70 W14G21    29.54S WCI  31
$$

WIZ051-052-058>065-066-070>072-211200-
SOUTHEAST WISCONSIN

CITY           SKY/WX    TMP DP  RH WIND       PRES   REMARKS
MILWAUKEE      MOCLDY    39  29  67 W14G22    29.51S WCI  31
WAUKESHA       MOCLDY    36  28  75 SW12G23   29.50S WCI  27
MILWAUKEE/TIMM CLOUDY    37  28  70 W14G26    29.50S WCI  29
RACINE         CLOUDY    39  29  67 W14G22    29.53S WCI  31
BURLINGTON     CLEAR     35  28  76 W13G25    29.53S WCI  26
KENOSHA        CLEAR     38  30  73 W18G30    29.53S WCI  28
FOND DU LAC    CLOUDY    35  31  85 W10G17    29.46S WCI  27
SHEBOYGAN      LGT SNOW  34  32  92 W15       29.46R FOG     WCI  24
WEST BEND      CLOUDY    37  30  75 W16G24    29.47R WCI  28
JUNEAU         CLOUDY    35  32  87 W17       29.50R WCI  25
$$

LSZ147-162-211200-
LAKE SUPERIOR

STATION/POSITION TIME  TEMP    WIND        PRES    WAVE
                       AIR SEA DIR/SP/G            HT/PER
                 (UTC) (F)     (DEG/KT/KT) (MB)    (FT/S)
DEVILS ISLAND    1100   34     270/ 23/ 28  993.4R
PORT WING        1000   35     260/ 15/ 20  994.9
SAXON HARBOR     1000   34     240/  6/ 11  993.6
$$

LMZ867-665-643>646-211200-
LAKE MICHIGAN

STATION/POSITION TIME  TEMP    WIND        PRES    WAVE
                       AIR SEA DIR/SP/G            HT/PER
                 (UTC) (F)     (DEG/KT/KT) (MB)    (FT/S)
CHAMBERS ISLAND  1000   38     220/  7/ 12  994.6F
NORTHPORT PIER   1000   38     240/  4/ 12  994.6S
SISTER BAY       1002   39     240/ 16/ 18   N/A
KEWAUNEE LAKESHO 1000   38     270/ 13/ 19  995.3S
SHEBOYGAN LAKESH 1100   36     260/ 13/ 15  998.4R
PORT WASHINGTON  1000   41     260/  8/ 17  998.6
MILWAUKEE LAKESH 1100   40     260/ 14/ 20   N/A
KENOSHA   LAKESH 1100   40     250/ 15/ 20 1000.7R
$$

TC  - TEMPERATURE IN CELSIUS
VSB - VISIBILITY IN STATUTE MILES
WCI - WIND CHILL INDEX
HX  - HEAT INDEX



USA.gov is the U.S. government's official web portal to all federal, state and local government web resources and services.